Emporia, KS

6:16 AM CDT on July 23, 2017 (GMT -0500)
Emporia Municipal

Weather History for KEMP - February, 2013

Change the Weather History Date:

Thursday, February 14, 2013

  Actual Average Record
Temperature  
Mean Temperature 40 °F 35 °F  
Max Temperature 49 °F 46 °F 64 °F (1999)
Min Temperature 31 °F 24 °F 3 °F (2007)
Degree Days  
Heating Degree Days 25 30  
Month to date heating degree days 376 444  
Since 1 July heating degree days 3093 3432  
Cooling Degree Days 0 0  
Month to date cooling degree days 0 0  
Year to date cooling degree days 0 0  
Moisture  
Dew Point 26 °F    
Average Humidity 60    
Maximum Humidity 78    
Minimum Humidity 42    
Precipitation  
Precipitation 0.00 in 0.04 in 0.80 in (2003)
Month to date precipitation 1.38 0.63  
Year to date precipitation 1.87 1.26  
Sea Level Pressure  
Sea Level Pressure 30.09 in    
Wind  
Wind Speed 10 mph (WNW)    
Max Wind Speed 20 mph    
Max Gust Speed 26 mph    
Visibility 10 miles    
Events      
T = Trace of Precipitation, MM = Missing Value Source: NWS Daily Summary

Daily Weather History Graph

Daily Weather History Graph

Search for Another Location

Airport or City:

Trip Planner

Search our weather history database for the weather conditions in past years. The results will help you decide how hot, cold, wet, or windy it might be!

Date:

Astronomy

Feb. 14, 2013 Rise Set
Actual Time 7:16 AM CST 6:02 PM CST
Civil Twilight 6:48 AM CST 6:29 PM CST
Nautical Twilight 6:17 AM CST 7:00 PM CST
Astronomical Twilight 5:47 AM CST 7:31 PM CST
Moon 9:23 AM CST (2/14) 11:01 PM CST (2/14)
Length of Visible Light 11h 40m
Length of Day
10h 46m
Waxing Crescent, 22% of the Moon is Illuminated
Feb 14
Waxing Crescent
Feb 17
First Quarter
Feb 25
Full
Mar 4
Last Quarter
Mar 11
New

Hourly Weather History & Observations

Time (CST) Temp. Windchill Dew Point Humidity Pressure Visibility Wind Dir Wind Speed Gust Speed Precip Events Conditions
12:53 AM 39.0 °F 32.3 °F 25.0 °F 57% 29.91 in 10.0 mi West 10.4 mph - N/A   Clear
1:53 AM 37.9 °F 30.9 °F 25.0 °F 60% 29.92 in 10.0 mi West 10.4 mph - N/A   Clear
2:53 AM 36.0 °F 29.6 °F 24.1 °F 62% 29.92 in 10.0 mi West 8.1 mph - N/A   Clear
3:53 AM 36.0 °F 29.0 °F 25.0 °F 64% 29.93 in 10.0 mi West 9.2 mph - N/A   Partly Cloudy
4:53 AM 34.0 °F 26.0 °F 25.0 °F 70% 29.95 in 10.0 mi WNW 10.4 mph - N/A   Clear
6:53 AM 32.0 °F 26.4 °F 26.1 °F 79% 30.02 in 10.0 mi WNW 5.8 mph - N/A   Clear
7:53 AM 34.0 °F 28.8 °F 27.0 °F 75% 30.05 in 10.0 mi WNW 5.8 mph - N/A   Clear
8:53 AM 37.9 °F 32.7 °F 28.9 °F 70% 30.08 in 10.0 mi WNW 6.9 mph - N/A   Clear
9:53 AM 42.1 °F 38.4 °F 30.9 °F 65% 30.08 in 10.0 mi NW 5.8 mph - N/A   Clear
10:53 AM 45.0 °F 39.3 °F 30.9 °F 58% 30.09 in 10.0 mi NW 11.5 mph - N/A   Clear
11:53 AM 46.0 °F 40.6 °F 30.9 °F 56% 30.10 in 10.0 mi NNW 11.5 mph - N/A   Clear
12:53 PM 48.0 °F - 30.0 °F 50% 30.09 in 10.0 mi NW 9.2 mph - N/A   Scattered Clouds
1:53 PM 48.0 °F - 30.0 °F 50% 30.09 in 10.0 mi NW 15.0 mph 20.7 mph N/A   Mostly Cloudy
2:53 PM 48.0 °F - 28.0 °F 46% 30.09 in 10.0 mi NW 15.0 mph - N/A   Overcast
3:53 PM 48.0 °F - 28.0 °F 46% 30.11 in 10.0 mi NW 13.8 mph - N/A   Overcast
4:53 PM 46.9 °F - 25.0 °F 42% 30.13 in 10.0 mi NW 11.5 mph - N/A   Overcast
5:53 PM 45.0 °F 39.3 °F 24.1 °F 44% 30.14 in 10.0 mi NW 11.5 mph - N/A   Overcast
6:53 PM 42.1 °F 37.7 °F 24.1 °F 49% 30.17 in 10.0 mi NW 6.9 mph - N/A   Mostly Cloudy
7:53 PM 41.0 °F 34.7 °F 24.1 °F 51% 30.18 in 10.0 mi NW 10.4 mph - N/A   Overcast
8:53 PM 41.0 °F 34.7 °F 25.0 °F 53% 30.20 in 10.0 mi NW 10.4 mph - N/A   Overcast
9:53 PM 37.9 °F 32.7 °F 23.0 °F 55% 30.23 in 10.0 mi WNW 6.9 mph - N/A   Scattered Clouds
10:53 PM 36.0 °F 27.1 °F 21.9 °F 57% 30.25 in 10.0 mi NW 13.8 mph 24.2 mph N/A   Clear
11:53 PM 30.9 °F 20.7 °F 21.0 °F 67% 30.27 in 10.0 mi NW 13.8 mph 19.6 mph N/A   Clear